Time,TemperatureF,DewpointF,PressureIn,WindDirection,WindDirectionDegrees,WindSpeedMPH,WindSpeedGustMPH,Humidity,HourlyPrecipIn,Conditions,Clouds,dailyrainin,SolarRadiationWatts/m^2,SoftwareType,DateUTC
2013-02-11 00:15:00,45.6,36.0,30.07,NE,55,0.0,1.0,68,0.00,,,0.00,0,weatherlink.com 1.10,2013-02-11 08:15:00,
2013-02-11 00:30:00,45.2,36.0,30.08,NE,55,0.0,1.0,69,0.00,,,0.00,0,weatherlink.com 1.10,2013-02-11 08:30:00,
2013-02-11 00:45:00,45.5,35.0,30.08,ENE,63,1.0,1.0,68,0.00,,,0.00,0,weatherlink.com 1.10,2013-02-11 08:45:00,
2013-02-11 01:00:00,45.3,37.0,30.08,NNE,33,0.0,3.0,72,0.00,,,0.00,0,weatherlink.com 1.10,2013-02-11 09:00:00,
2013-02-11 01:15:00,44.9,37.0,30.08,NNW,339,0.0,1.0,73,0.00,,,0.00,0,weatherlink.com 1.10,2013-02-11 09:15:00,
2013-02-11 01:30:00,45.1,37.0,30.09,NNE,33,0.0,2.0,73,0.00,,,0.00,0,weatherlink.com 1.10,2013-02-11 09:30:00,
2013-02-11 01:45:00,45.2,36.0,30.09,NE,34,0.0,1.0,70,0.00,,,0.00,0,weatherlink.com 1.10,2013-02-11 09:45:00,
2013-02-11 02:00:00,45.0,35.0,30.08,North,351,0.0,1.0,68,0.00,,,0.00,0,weatherlink.com 1.10,2013-02-11 10:00:00,
2013-02-11 02:15:00,44.8,35.0,30.08,North,351,0.0,0.0,69,0.00,,,0.00,0,weatherlink.com 1.10,2013-02-11 10:15:00,
2013-02-11 02:30:00,44.8,34.0,30.09,North,355,1.0,1.0,66,0.00,,,0.00,0,weatherlink.com 1.10,2013-02-11 10:30:00,
2013-02-11 02:45:00,44.5,36.0,30.09,North,10,1.0,2.0,71,0.00,,,0.00,0,weatherlink.com 1.10,2013-02-11 10:45:00,
2013-02-11 03:00:00,44.1,36.0,30.09,North,10,1.0,1.0,73,0.00,,,0.00,0,weatherlink.com 1.10,2013-02-11 11:00:00,
2013-02-11 03:15:00,43.9,34.0,30.09,North,10,0.0,1.0,69,0.00,,,0.00,0,weatherlink.com 1.10,2013-02-11 11:15:00,
2013-02-11 03:30:00,43.8,33.0,30.09,North,10,0.0,2.0,67,0.00,,,0.00,0,weatherlink.com 1.10,2013-02-11 11:30:00,
2013-02-11 03:45:00,43.6,33.0,30.09,North,11,0.0,0.0,67,0.00,,,0.00,0,weatherlink.com 1.10,2013-02-11 11:45:00,
2013-02-11 04:00:00,43.5,32.0,30.09,North,5,0.0,1.0,65,0.00,,,0.00,0,weatherlink.com 1.10,2013-02-11 12:00:00,
2013-02-11 04:15:00,43.6,32.0,30.09,North,5,0.0,1.0,63,0.00,,,0.00,0,weatherlink.com 1.10,2013-02-11 12:15:00,
2013-02-11 04:30:00,43.7,32.0,30.10,NNE,20,0.0,2.0,64,0.00,,,0.00,0,weatherlink.com 1.10,2013-02-11 12:30:00,
2013-02-11 04:45:00,43.4,32.0,30.10,NNE,20,0.0,0.0,65,0.00,,,0.00,0,weatherlink.com 1.10,2013-02-11 12:45:00,
2013-02-11 05:00:00,43.0,31.0,30.11,NNE,23,0.0,1.0,63,0.00,,,0.00,0,weatherlink.com 1.10,2013-02-11 13:00:00,
2013-02-11 05:15:00,44.2,30.0,30.11,North,360,0.0,2.0,59,0.00,,,0.00,0,weatherlink.com 1.10,2013-02-11 13:15:00,
2013-02-11 05:30:00,45.0,30.0,30.11,North,355,0.0,2.0,56,0.00,,,0.00,0,weatherlink.com 1.10,2013-02-11 13:30:00,
2013-02-11 05:45:00,45.7,30.0,30.11,NNE,17,0.0,2.0,54,0.00,,,0.00,0,weatherlink.com 1.10,2013-02-11 13:45:00,
2013-02-11 06:00:00,46.3,30.0,30.12,NNE,29,0.0,3.0,53,0.00,,,0.00,0,weatherlink.com 1.10,2013-02-11 14:00:00,
2013-02-11 06:15:00,46.4,29.0,30.13,North,355,0.0,2.0,52,0.00,,,0.00,0,weatherlink.com 1.10,2013-02-11 14:15:00,
2013-02-11 06:30:00,46.6,30.0,30.13,North,360,0.0,3.0,53,0.00,,,0.00,0,weatherlink.com 1.10,2013-02-11 14:30:00,
2013-02-11 06:45:00,45.9,28.0,30.13,NE,55,0.0,3.0,50,0.00,,,0.00,0,weatherlink.com 1.10,2013-02-11 14:45:00,
2013-02-11 07:00:00,46.4,28.0,30.14,NE,40,0.0,4.0,49,0.00,,,0.00,0,weatherlink.com 1.10,2013-02-11 15:00:00,
2013-02-11 07:15:00,47.0,28.0,30.14,South,182,0.0,5.0,48,0.00,,,0.00,9,weatherlink.com 1.10,2013-02-11 15:15:00,
2013-02-11 07:30:00,48.0,28.0,30.14,NE,47,0.0,5.0,46,0.00,,,0.00,14,weatherlink.com 1.10,2013-02-11 15:30:00,
2013-02-11 07:45:00,48.8,28.0,30.14,North,360,0.0,4.0,44,0.00,,,0.00,23,weatherlink.com 1.10,2013-02-11 15:45:00,
2013-02-11 08:00:00,50.5,28.0,30.15,North,5,0.0,6.0,42,0.00,,,0.00,130,weatherlink.com 1.10,2013-02-11 16:00:00,
2013-02-11 08:16:00,52.0,28.0,30.16,North,5,1.0,4.0,40,0.00,,,0.00,195,weatherlink.com 1.10,2013-02-11 16:16:00,
2013-02-11 08:31:00,53.5,29.0,30.17,North,355,1.0,3.0,39,0.00,,,0.00,253,weatherlink.com 1.10,2013-02-11 16:31:00,
2013-02-11 08:46:00,54.7,30.0,30.17,North,351,1.0,5.0,39,0.00,,,0.00,301,weatherlink.com 1.10,2013-02-11 16:46:00,
2013-02-11 09:01:00,56.0,29.0,30.18,North,5,2.0,5.0,36,0.00,,,0.00,350,weatherlink.com 1.10,2013-02-11 17:01:00,
2013-02-11 09:16:00,55.9,32.0,30.18,North,9,1.0,4.0,40,0.00,,,0.00,258,weatherlink.com 1.10,2013-02-11 17:16:00,
2013-02-11 09:31:00,56.6,30.0,30.18,North,355,1.0,5.0,36,0.00,,,0.00,439,weatherlink.com 1.10,2013-02-11 17:31:00,
2013-02-11 09:46:00,58.1,31.0,30.19,North,5,3.0,5.0,36,0.00,,,0.00,482,weatherlink.com 1.10,2013-02-11 17:46:00,
2013-02-11 10:01:00,59.1,31.0,30.19,NE,42,1.0,7.0,34,0.00,,,0.00,520,weatherlink.com 1.10,2013-02-11 18:01:00,
2013-02-11 10:16:00,59.5,29.0,30.20,NNE,28,0.0,6.0,32,0.00,,,0.00,554,weatherlink.com 1.10,2013-02-11 18:16:00,
2013-02-11 10:31:00,60.0,30.0,30.20,North,355,0.0,7.0,32,0.00,,,0.00,585,weatherlink.com 1.10,2013-02-11 18:31:00,
2013-02-11 10:46:00,60.5,30.0,30.20,North,5,2.0,6.0,31,0.00,,,0.00,612,weatherlink.com 1.10,2013-02-11 18:46:00,
2013-02-11 11:01:00,62.0,32.0,30.20,North,355,0.0,4.0,32,0.00,,,0.00,638,weatherlink.com 1.10,2013-02-11 19:01:00,
2013-02-11 11:16:00,62.0,30.0,30.20,NNE,15,1.0,5.0,30,0.00,,,0.00,657,weatherlink.com 1.10,2013-02-11 19:16:00,
2013-02-11 11:31:00,63.2,33.0,30.18,SSW,194,1.0,4.0,32,0.00,,,0.00,675,weatherlink.com 1.10,2013-02-11 19:31:00,
2013-02-11 11:46:00,63.3,33.0,30.18,North,9,2.0,5.0,32,0.00,,,0.00,687,weatherlink.com 1.10,2013-02-11 19:46:00,
2013-02-11 12:02:00,64.3,31.0,30.18,NNW,348,1.0,6.0,29,0.00,,,0.00,698,weatherlink.com 1.10,2013-02-11 20:02:00,
2013-02-11 12:17:00,65.0,33.0,30.17,SE,143,0.0,4.0,30,0.00,,,0.00,703,weatherlink.com 1.10,2013-02-11 20:17:00,
2013-02-11 12:32:00,65.6,32.0,30.17,SE,141,1.0,6.0,29,0.00,,,0.00,705,weatherlink.com 1.10,2013-02-11 20:32:00,
2013-02-11 12:47:00,65.8,33.0,30.16,SE,146,1.0,5.0,30,0.00,,,0.00,707,weatherlink.com 1.10,2013-02-11 20:47:00,
2013-02-11 13:02:00,66.0,32.0,30.16,North,9,0.0,5.0,28,0.00,,,0.00,696,weatherlink.com 1.10,2013-02-11 21:02:00,
2013-02-11 13:17:00,67.0,34.0,30.16,North,355,2.0,5.0,29,0.00,,,0.00,687,weatherlink.com 1.10,2013-02-11 21:17:00,
2013-02-11 13:32:00,67.7,31.0,30.15,SE,140,1.0,3.0,26,0.00,,,0.00,671,weatherlink.com 1.10,2013-02-11 21:32:00,
2013-02-11 13:47:00,67.2,31.0,30.15,SE,136,1.0,5.0,26,0.00,,,0.00,654,weatherlink.com 1.10,2013-02-11 21:47:00,
2013-02-11 14:02:00,66.7,32.0,30.14,NW,321,0.0,4.0,27,0.00,,,0.00,631,weatherlink.com 1.10,2013-02-11 22:02:00,
2013-02-11 14:17:00,67.2,32.0,30.14,NE,36,1.0,2.0,27,0.00,,,0.00,603,weatherlink.com 1.10,2013-02-11 22:17:00,
2013-02-11 14:32:00,67.6,32.0,30.14,ESE,117,1.0,4.0,27,0.00,,,0.00,573,weatherlink.com 1.10,2013-02-11 22:32:00,
2013-02-11 14:47:00,63.8,35.0,30.14,SSE,167,1.0,7.0,34,0.00,,,0.00,536,weatherlink.com 1.10,2013-02-11 22:47:00,
2013-02-11 15:02:00,62.7,36.0,30.14,South,185,2.0,6.0,37,0.00,,,0.00,499,weatherlink.com 1.10,2013-02-11 23:02:00,
2013-02-11 15:17:00,63.4,36.0,30.15,SSE,159,1.0,5.0,37,0.00,,,0.00,408,weatherlink.com 1.10,2013-02-11 23:17:00,
2013-02-11 15:32:00,62.6,38.0,30.15,SSE,161,3.0,4.0,41,0.00,,,0.00,267,weatherlink.com 1.10,2013-02-11 23:32:00,
2013-02-11 15:47:00,60.7,41.0,30.14,SE,138,5.0,7.0,49,0.00,,,0.00,371,weatherlink.com 1.10,2013-02-11 23:47:00,
2013-02-11 16:02:00,59.5,42.0,30.14,SE,146,3.0,6.0,52,0.00,,,0.00,325,weatherlink.com 1.10,2013-02-12 00:02:00,
2013-02-11 16:17:00,58.9,43.0,30.15,SSE,150,4.0,7.0,56,0.00,,,0.00,269,weatherlink.com 1.10,2013-02-12 00:17:00,
2013-02-11 16:32:00,57.7,44.0,30.15,SE,124,3.0,6.0,60,0.00,,,0.00,207,weatherlink.com 1.10,2013-02-12 00:32:00,
2013-02-11 16:47:00,56.8,44.0,30.16,SE,146,3.0,6.0,63,0.00,,,0.00,144,weatherlink.com 1.10,2013-02-12 00:47:00,
2013-02-11 17:02:00,55.9,45.0,30.16,SSE,157,3.0,7.0,66,0.00,,,0.00,90,weatherlink.com 1.10,2013-02-12 01:02:00,
2013-02-11 17:17:00,53.9,47.0,30.16,SE,131,4.0,7.0,77,0.00,,,0.00,42,weatherlink.com 1.10,2013-02-12 01:17:00,
2013-02-11 17:32:00,53.1,47.0,30.16,SSE,159,2.0,6.0,79,0.00,,,0.00,16,weatherlink.com 1.10,2013-02-12 01:32:00,
2013-02-11 17:47:00,52.9,47.0,30.16,SE,140,3.0,6.0,79,0.00,,,0.00,0,weatherlink.com 1.10,2013-02-12 01:47:00,
2013-02-11 18:02:00,52.4,47.0,30.17,SE,140,3.0,8.0,82,0.00,,,0.00,0,weatherlink.com 1.10,2013-02-12 02:02:00,
2013-02-11 18:17:00,51.7,47.0,30.17,SE,135,4.0,6.0,83,0.00,,,0.00,0,weatherlink.com 1.10,2013-02-12 02:17:00,
2013-02-11 18:32:00,51.4,46.0,30.18,SE,146,2.0,3.0,83,0.00,,,0.00,0,weatherlink.com 1.10,2013-02-12 02:32:00,
2013-02-11 18:47:00,51.0,46.0,30.18,SE,145,2.0,6.0,84,0.00,,,0.00,0,weatherlink.com 1.10,2013-02-12 02:47:00,
2013-02-11 19:02:00,50.9,46.0,30.18,SE,130,2.0,6.0,84,0.00,,,0.00,0,weatherlink.com 1.10,2013-02-12 03:02:00,
2013-02-11 19:17:00,50.7,46.0,30.19,SE,141,4.0,5.0,84,0.00,,,0.00,0,weatherlink.com 1.10,2013-02-12 03:17:00,
2013-02-11 19:32:00,50.5,46.0,30.19,SE,138,1.0,5.0,85,0.00,,,0.00,0,weatherlink.com 1.10,2013-02-12 03:32:00,
2013-02-11 19:47:00,50.4,46.0,30.19,SE,141,2.0,6.0,85,0.00,,,0.00,0,weatherlink.com 1.10,2013-02-12 03:47:00,
2013-02-11 20:02:00,50.1,46.0,30.19,SE,139,2.0,5.0,86,0.00,,,0.00,0,weatherlink.com 1.10,2013-02-12 04:02:00,
2013-02-11 20:17:00,49.9,46.0,30.20,SE,142,2.0,5.0,86,0.00,,,0.00,0,weatherlink.com 1.10,2013-02-12 04:17:00,
2013-02-11 20:32:00,49.7,46.0,30.20,SSE,157,3.0,7.0,87,0.00,,,0.00,0,weatherlink.com 1.10,2013-02-12 04:32:00,
2013-02-11 20:47:00,49.5,46.0,30.20,SSE,147,5.0,7.0,89,0.00,,,0.00,0,weatherlink.com 1.10,2013-02-12 04:47:00,
2013-02-11 21:02:00,49.2,47.0,30.21,SE,141,2.0,8.0,90,0.00,,,0.00,0,weatherlink.com 1.10,2013-02-12 05:02:00,
2013-02-11 21:17:00,49.2,47.0,30.22,SE,146,5.0,8.0,91,0.00,,,0.00,0,weatherlink.com 1.10,2013-02-12 05:17:00,
2013-02-11 21:32:00,49.1,47.0,30.22,SSE,159,3.0,7.0,91,0.00,,,0.00,0,weatherlink.com 1.10,2013-02-12 05:32:00,
2013-02-11 21:47:00,49.0,47.0,30.22,SSE,158,1.0,8.0,91,0.00,,,0.00,0,weatherlink.com 1.10,2013-02-12 05:47:00,
2013-02-11 22:02:00,48.7,46.0,30.22,SE,135,5.0,8.0,91,0.00,,,0.00,0,weatherlink.com 1.10,2013-02-12 06:02:00,
2013-02-11 22:17:00,48.4,46.0,30.22,SE,136,4.0,5.0,92,0.00,,,0.00,0,weatherlink.com 1.10,2013-02-12 06:17:00,
2013-02-11 22:32:00,48.3,46.0,30.22,SSE,149,5.0,6.0,92,0.00,,,0.00,0,weatherlink.com 1.10,2013-02-12 06:32:00,
2013-02-11 22:47:00,48.3,46.0,30.22,SSE,159,1.0,6.0,92,0.00,,,0.00,0,weatherlink.com 1.10,2013-02-12 06:47:00,
2013-02-11 23:02:00,48.2,46.0,30.23,SSE,150,2.0,5.0,92,0.00,,,0.00,0,weatherlink.com 1.10,2013-02-12 07:02:00,
2013-02-11 23:17:00,48.1,46.0,30.23,SSE,165,2.0,6.0,92,0.00,,,0.00,0,weatherlink.com 1.10,2013-02-12 07:17:00,
2013-02-11 23:32:00,48.0,46.0,30.23,SE,146,3.0,6.0,91,0.00,,,0.00,0,weatherlink.com 1.10,2013-02-12 07:32:00,
2013-02-11 23:47:00,48.0,46.0,30.23,South,181,4.0,6.0,91,0.00,,,0.00,0,weatherlink.com 1.10,2013-02-12 07:47:00,